Location: Northcutt
(34.7304°N, 84.4305°W)
Time: 04:12:24
(UTC+00:00)

Vanguard 2 - Pass Details

Date: 03 October 2022
Orbit: 553 x 2933 km, 32.9° (Epoch: 05 December)

Event Time Altitude Azimuth Distance (km) Brightness Sun altitude
Rises 16:48:05 0° 220° (SW) 4,057 11.5 50.1°
Reaches altitude 10° 16:50:37 10° 212° (SSW) 3,362 11.4 50.2°
Maximum altitude 16:58:54 42° 144° (SE) 2,444 11.8 50.6°
Drops below altitude 10° 17:11:51 10° 81° (E) 5,209 11.9 51.0°
Sets 17:16:50 0° 76° (ENE) 6,486 12.2 51.0°
